CAPE
0 0 0 0 0 0 0 0 0 0 0 0 0 0 0 0 0 0 0 0 0 0 0 0 0 0 0 0 0 0 0 0 0 0 0 0 0 0 0 0 0 0 0 0
0 0 0 0 0 0 0 0 0 0 0 0 0 0 0 0 0 0 0 0 0 0 0 0 0 0 0 0 0 0 0 0 0 0 0 0 0 0 0 0 0 0 0 0
0 0 0 0 0 0 0 0 0 0 0 0 0 0 0 0 0 0 0 0 0 0 0 0 0 0 0 0 0 0 0 0 0 0 0 0 0 0 0 0 0 0 0 0
0 0 0 0 0 0 0 0 0 0 0 0 0 0 0 0 0 0 0 0 0 0 0 0 0 0 0 0 0 0 0 0 0 0 0 0 0 0 0 0 0 0 0 0
0 0 0 0 0 0 0 0 0 0 0 0 0 0 0 0 0 0 0 0 0 0 0 0 0 0 0 0 0 0 0 0 0 0 0 0 0 0 0 0 0 0 0 0
0 0 0 0 0 0 0 0 0 0 0 0 0 0 0 0 0 0 0 0 0 0 0 0 0 0 0 0 0 0 0 0 0 0 0 0 0 0 0 0 0 0 0 0
0 0 0 0 0 0 0 0 0 0 0 0 0 0 0 0 0 0 0 0 0 0 0 0 0 0 0 0 0 0 0 0 0 0 0 0 0 0 0 0 0 0 0 0
0 0 0 0 0 0 0 0 0 0 0 0 0 0 0 0 0 0 0 0 0 0 0 0 0 0 0 0 0 0 0 0 0 0 0 0 0 0 0 0 0 0 0 0
0 0 0 0 0 0 0 0 0 0 0 0 0 0 0 0 0 0 0 0 0 0 0 0 0 0 0 0 0 0 0 0 0 0 0 0 0 0 0 0 0 0 0 0
0 0 0 0 0 0 0 0 0 0 0 0 0 0 0 0 0 0 0 0 0 0 0 0 0 0 0 0 0 0 0 0 0 0 0 0 0 0 0 0 0 0 0 0
0 0 0 0 0 0 0 0 0 0 0 0 0 0 0 0 0 0 0 0 0 0 0 0 0 0 0 0 0 0 0 0 0 0 0 0 0 0 0 0 0 0 0 0
0 0 0 0 0 0 0 0 0 0 0 0 0 0 0 0 0 0 0 0 0 0 0 0 0 0 0 0 0 0 0 0 0 0 0 0 0 0 0 0 0 0 0 0
0 0 0 0 0 0 0 0 0 0 0 0 0 0 0 0 0 0 0 0 0 0 0 0 0 0 0 0 0 0 0 0 0 0 0 0 0 0 0 0 0 0 0 0
0 0 0 0 0 0 0 0 0 0 0 0 0 0 0 0 0 0 0 0 0 0 0 0 0 0 0 0 0 0 0 0 0 0 0 0 0 0 0 0 0 0 0 0
0 0 0 0 0 0 0 0 0 0 0 0 0 0 0 0 0 0 0 0 0 0 0 0 0 0 0 0 0 0 0 0 0 0 0 0 0 0 0 0 0 0 0 0
0 0 0 0 0 0 0 0 0 0 0 0 0 0 0 0 0 0 0 0 0 0 0 0 0 0 0 0 0 0 0 0 0 0 0 0 0 0 0 0 0 0 0 0
0 0 0 0 0 0 0 0 0 0 0 0 0 0 0 0 0 0 0 0 0 0 0 0 0 0 0 0 0 0 0 0 0 0 0 0 0 0 0 0 0 0 0 0
0 0 0 0 0 0 0 0 0 0 0 0 0 0 0 0 0 0 0 0 0 0 0 0 0 0 0 0 0 0 0 0 0 0 0 0 0 0 0 0 0 0 0 0
0 0 0 0 0 0 0 0 0 0 0 0 0 0 0 0 0 0 0 0 0 0 0 0 0 0 0 0 0 0 0 0 0 0 0 0 0 0 0 0 0 0 0 0
0 0 0 0 0 0 0 0 0 0 0 0 0 0 0 0 0 0 0 0 0 0 0 0 0 0 0 0 0 0 0 0 0 0 0 0 0 0 0 0 0 0 0 0
0 0 0 0 0 0 0 0 0 0 0 0 0 0 0 0 0 0 0 0 0 0 0 0 0 0 0 0 0 0 0 0 0 0 0 0 0 0 0 0 0 0 0 0
0 0 0 0 0 0 0 0 0 0 0 0 0 0 0 0 0 0 0 0 0 0 0 0 0 0 0 0 0 0 0 0 0 0 0 0 0 0 0 0 0 0 0 0
0 0 0 0 0 0 0 0 0 0 0 0 0 0 0 0 0 0 0 0 0 0 0 0 0 0 0 0 0 0 0 0 0 0 0 0 0 0 0 0 0 0 0 0
0 0 0 0 0 0 0 0 0 0 0 0 0 0 0 0 0 0 0 0 0 0 0 0 0 0 0 0 0 0 0 0 0 0 0 0 0 0 0 0 0 0 0 0
0 0 0 0 0 0 0 0 0 0 0 0 0 0 0 0 0 0 0 0 0 0 0 0 0 0 0 0 0 0 0 0 0 0 0 0 0 0 0 0 0 0 0 0
0 0 0 0 0 0 0 0 0 0 0 0 0 0 0 0 0 0 0 0 0 0 0 0 0 0 0 0 0 0 0 0 0 0 0 0 0 0 0 0 0 0 0 0
CIN
0 0 0 0 0 0 0 0 0 0 0 0 0 0 0 0 0 0 0 0 0 0 0 0 0 0 0 0 0 0 0 0 0 0 0 0 0 0 0 0 0 0 0 0
0 0 0 0 0 0 0 0 0 0 0 0 0 0 0 0 0 0 0 0 0 0 0 0 0 0 0 0 0 0 0 0 0 0 0 0 0 0 0 0 0 0 0 0
0 0 0 0 0 0 0 0 0 0 0 0 0 0 0 0 0 0 0 0 0 0 0 0 0 0 0 0 0 0 0 0 0 0 0 0 0 0 0 0 0 0 0 0
0 0 0 0 0 0 0 0 0 0 0 0 0 0 0 0 0 0 0 0 0 0 0 0 0 0 0 0 0 0 0 0 0 0 0 0 0 0 0 0 0 0 0 0
0 0 0 0 0 0 0 0 0 0 0 0 0 0 0 0 0 0 0 0 0 0 0 0 0 0 0 0 0 0 0 0 0 0 0 0 0 0 0 0 0 0 0 0
0 0 0 0 0 0 0 0 0 0 0 0 0 0 0 0 0 0 0 0 0 0 0 0 0 0 0 0 0 0 0 0 0 0 0 0 0 0 0 0 0 0 0 0
0 0 0 0 0 0 0 0 0 0 0 0 0 0 0 0 0 0 0 0 0 0 0 0 0 0 0 0 0 0 0 0 0 0 0 0 0 0 0 0 0 0 0 0
0 0 0 0 0 0 0 0 0 0 0 0 0 0 0 0 0 0 0 0 0 0 0 0 0 0 0 0 0 0 0 0 0 0 0 0 0 0 0 0 0 0 0 0
0 0 0 0 0 0 0 0 0 0 0 0 0 0 0 0 0 0 0 0 0 0 0 0 0 0 0 0 0 0 0 0 0 0 0 0 0 0 0 0 0 0 0 0
0 0 0 0 0 0 0 0 0 0 0 0 0 0 0 0 0 0 0 0 0 0 0 0 0 0 0 0 0 0 0 0 0 0 0 0 0 0 0 0 0 0 0 0
0 0 0 0 0 0 0 0 0 0 0 0 0 0 0 0 0 0 0 0 0 0 0 0 0 0 0 0 0 0 0 0 0 0 0 0 0 0 0 0 0 0 0 0
0 0 0 0 0 0 0 0 0 0 0 0 0 0 0 0 0 0 0 0 0 0 0 0 0 0 0 0 0 0 0 0 0 0 0 0 0 0 0 0 0 0 0 0
0 0 0 0 0 0 0 0 0 0 0 0 0 0 0 0 0 0 0 0 0 0 0 0 0 0 0 0 0 0 0 0 0 0 0 0 0 0 0 0 0 0 0 0
0 0 0 0 0 0 0 0 0 0 0 0 0 0 0 0 0 0 0 0 0 0 0 0 0 0 0 0 0 0 0 0 0 0 0 0 0 0 0 0 0 0 0 0
0 0 0 0 0 0 0 0 0 0 0 0 0 0 0 0 0 0 0 0 0 0 0 0 0 0 0 0 0 0 0 0 0 0 0 0 0 0 0 0 0 0 0 0
0 0 0 0 0 0 0 0 0 0 0 0 0 0 0 0 0 0 0 0 0 0 0 0 0 0 0 0 0 0 0 0 0 0 0 0 0 0 0 0 0 0 0 0
0 0 0 0 0 0 0 0 0 0 0 0 0 0 0 0 0 0 0 0 0 0 0 0 0 0 0 0 0 0 0 0 0 0 0 0 0 0 0 0 0 0 0 0
0 0 0 0 0 0 0 0 0 0 0 0 0 0 0 0 0 0 0 0 0 0 0 0 0 0 0 0 0 0 0 0 0 0 0 0 0 0 0 0 0 0 0 0
0 0 0 0 0 0 0 0 0 0 0 0 0 0 0 0 0 0 0 0 0 0 0 0 0 0 0 0 0 0 0 0 0 0 0 0 0 0 0 0 0 0 0 0
0 0 0 0 0 0 0 0 0 0 0 0 0 0 0 0 0 0 0 0 0 0 0 0 0 0 0 0 0 0 0 0 0 0 0 0 0 0 0 0 0 0 0 0
0 0 0 0 0 0 0 0 0 0 0 0 0 0 0 0 0 0 0 0 0 0 0 0 0 0 0 0 0 0 0 0 0 0 0 0 0 0 0 0 0 0 0 0
0 0 0 0 0 0 0 0 0 0 0 0 0 0 0 0 0 0 0 0 0 0 0 0 0 0 0 0 0 0 0 0 0 0 0 0 0 0 0 0 0 0 0 0
0 0 0 0 0 0 0 0 0 0 0 0 0 0 0 0 0 0 0 0 0 0 0 0 0 0 0 0 0 0 0 0 0 0 0 0 0 0 0 0 0 0 0 0
0 0 0 0 0 0 0 0 0 0 0 0 0 0 0 0 0 0 0 0 0 0 0 0 0 0 0 0 0 0 0 0 0 0 0 0 0 0 0 0 0 0 0 0
0 0 0 0 0 0 0 0 0 0 0 0 0 0 0 0 0 0 0 0 0 0 0 0 0 0 0 0 0 0 0 0 0 0 0 0 0 0 0 0 0 0 0 0
0 0 0 0 0 0 0 0 0 0 0 0 0 0 0 0 0 0 0 0 0 0 0 0 0 0 0 0 0 0 0 0 0 0 0 0 0 0 0 0 0 0 0 -1
Wind_Speed
21 26 32 24 23 20 17 20 20 19 17 17 21 24 20 13 10 7 6 5 6 7 9 9 9 8 9 11 12 14 15 17 17 17 18 19 21 22 24 26 28 29 29 28
23 31 21 17 18 20 19 19 20 19 17 19 23 27 23 15 11 8 6 6 6 8 8 9 8 8 10 10 12 13 15 16 17 17 18 19 21 22 24 27 29 30 29 28
25 22 16 18 18 19 20 21 20 22 18 21 26 30 24 19 17 13 10 9 8 6 6 7 8 8 9 11 12 13 14 16 17 19 20 21 21 23 26 29 30 30 29 28
22 19 18 18 19 18 22 18 17 18 20 26 21 30 23 17 15 13 11 9 7 6 8 7 7 8 10 11 11 13 14 16 18 20 22 22 24 27 28 28 29 30 28 28
23 19 18 18 19 16 19 14 15 18 21 25 23 26 24 19 18 14 11 7 6 6 5 6 7 9 10 10 11 13 15 17 19 20 22 23 26 27 28 29 31 31 29 28
18 18 17 17 13 15 7 13 16 18 21 29 23 22 27 19 19 14 10 7 7 8 7 7 8 8 9 10 12 14 16 18 20 21 23 26 28 30 31 32 32 32 31 31
19 19 18 15 13 13 14 15 25 28 27 30 21 23 25 21 20 17 9 8 8 7 6 6 7 8 9 11 13 15 17 19 21 24 26 28 29 30 31 31 32 33 33 33
23 26 16 17 17 16 14 17 23 31 29 29 21 28 24 22 22 19 12 6 6 6 6 6 7 9 10 12 14 15 18 21 23 25 27 28 28 30 31 31 31 32 33 34
21 23 17 17 17 15 17 21 18 25 27 32 28 27 25 23 20 16 10 4 5 5 6 7 9 12 14 16 18 19 21 23 25 27 28 29 29 30 31 31 32 34 36 37
18 21 19 18 17 18 18 14 22 23 33 36 32 31 26 21 18 13 7 4 4 6 8 11 14 17 19 20 21 22 24 26 29 31 32 33 33 35 36 38 40 41 41 41
17 20 20 18 21 19 19 21 21 21 25 33 37 31 22 21 14 11 8 7 7 9 11 13 15 18 19 21 22 24 26 28 31 32 32 34 36 38 39 41 43 45 46 46
20 20 25 23 21 21 23 24 22 29 31 28 31 36 24 23 14 12 10 10 10 11 13 14 17 19 22 23 25 26 29 31 32 32 34 37 39 41 44 46 48 49 49 47
17 24 28 29 27 25 27 25 24 24 26 31 34 33 22 21 16 14 12 12 12 14 15 17 20 23 25 27 29 31 32 33 35 37 39 41 43 44 46 48 48 48 48 48
17 25 29 34 29 21 26 24 22 24 31 32 31 32 25 22 19 16 14 14 15 17 18 21 24 26 28 29 31 32 34 35 37 39 41 43 44 45 46 46 47 48 48 49
23 31 29 29 27 26 28 27 23 26 27 32 33 31 28 22 19 16 15 16 18 20 21 24 27 30 31 34 35 37 38 40 40 42 43 44 44 45 46 47 48 49 49 49
25 31 28 32 29 31 33 29 26 28 30 33 35 36 29 22 18 19 17 18 21 21 24 27 30 33 35 37 38 38 40 40 41 44 45 45 46 47 48 49 50 50 51 50
25 27 29 37 30 33 43 33 31 32 31 32 37 34 23 22 20 19 20 20 21 23 27 31 34 35 36 36 37 40 41 42 43 44 46 46 47 49 49 50 49 49 49 47
26 26 28 34 30 44 34 27 26 29 30 28 30 27 22 18 17 17 18 20 23 27 30 33 34 35 37 39 41 42 43 45 47 47 48 47 47 49 50 49 48 47 46 44
23 24 29 35 37 40 33 28 26 26 31 24 23 20 17 16 18 21 18 21 26 29 32 34 36 38 39 41 42 44 45 45 46 47 48 49 49 50 48 47 46 46 45 44
23 24 30 33 40 46 34 24 20 22 39 21 18 17 16 18 26 25 20 26 30 32 34 37 38 38 39 41 43 45 46 47 47 48 48 48 48 47 46 45 46 45 43 42
31 32 37 38 42 40 29 22 19 35 39 17 15 15 17 22 23 21 23 28 30 34 38 39 39 41 41 42 43 45 45 46 47 47 47 47 47 45 44 44 43 43 43 44
34 34 37 35 40 48 22 22 31 27 18 14 14 15 18 20 21 24 27 32 36 39 40 40 42 41 41 41 43 45 46 46 46 46 46 45 44 43 42 43 45 43 42 43
38 33 35 32 35 25 19 23 18 14 13 14 15 15 17 22 25 29 33 37 39 40 40 40 41 43 42 42 41 45 46 45 45 45 44 44 43 42 42 43 42 42 40 38
30 27 30 28 27 21 19 15 14 11 13 12 14 17 21 26 29 33 36 37 39 39 40 40 42 44 46 44 43 42 44 43 42 43 42 42 42 42 41 39 38 35 31 29
28 25 27 28 22 17 18 13 10 11 11 14 18 21 24 27 32 34 36 38 39 39 40 40 42 44 45 44 44 42 41 40 40 40 41 41 40 39 39 35 29 28 29 28
22 24 26 28 16 18 14 11 9 12 15 17 19 24 26 30 34 35 37 37 38 40 40 42 43 44 44 43 41 39 38 38 39 40 40 39 38 37 32 30 27 26 25 24
Wind_Direction
233 233 234 246 249 262 269 267 270 277 285 288 288 289 297 307 309 304 300 306 312 322 334 344 348 355 359 354 354 355 356 356 358 359 356 357 356 357 356 353 352 350 350 350
235 236 251 256 258 262 268 270 273 283 288 291 294 290 297 306 299 283 279 288 297 315 327 333 340 345 346 350 352 354 356 357 358 0 358 356 354 355 355 352 350 349 351 351
237 248 253 255 260 263 269 271 276 282 292 295 297 294 297 306 307 303 292 297 298 302 315 326 332 338 345 347 349 351 354 358 356 352 351 350 352 350 346 344 345 347 348 348
247 251 252 257 262 268 269 282 286 288 290 289 303 294 304 311 311 308 298 292 287 301 317 323 330 335 337 343 350 352 353 350 347 348 346 346 345 341 342 343 345 344 345 346
246 250 254 261 267 273 277 291 292 295 293 295 297 299 305 310 305 303 302 294 289 303 310 313 324 333 340 346 347 346 345 343 344 346 346 344 341 340 339 338 337 338 340 340
257 260 266 271 281 282 291 296 302 302 299 289 298 297 304 311 313 307 301 292 294 302 312 319 329 339 343 342 340 340 339 339 341 343 341 338 336 334 334 334 334 334 334 334
258 262 270 271 276 284 286 286 284 285 287 289 307 301 301 317 317 315 292 284 295 300 307 315 325 333 336 336 334 333 336 337 337 335 334 334 334 334 333 332 331 330 329 329
250 257 263 270 276 280 274 283 283 284 287 294 306 299 310 317 315 313 310 286 301 310 316 324 328 331 331 331 332 333 332 331 332 332 332 334 334 332 331 330 329 328 327 326
257 264 273 275 277 282 281 279 296 293 298 295 299 305 309 316 320 323 323 280 294 306 313 322 327 325 324 324 325 326 327 329 330 331 331 331 331 331 330 329 326 323 322 321
267 268 276 278 281 284 287 291 289 294 291 292 298 301 302 317 320 322 319 290 302 315 320 324 323 321 321 322 324 326 326 326 327 328 328 328 328 327 326 324 321 319 318 317
268 275 278 279 274 274 280 284 294 299 295 293 295 300 313 317 316 313 306 304 305 310 315 320 326 330 332 331 330 328 328 328 328 329 328 328 327 326 325 323 321 319 317 314
267 278 273 276 286 286 283 284 284 286 290 293 296 296 313 317 308 311 306 306 310 313 315 319 324 327 329 330 331 330 328 327 327 327 326 325 324 323 322 320 319 318 315 314
259 273 274 279 284 286 282 282 285 289 294 289 293 300 318 318 314 309 304 306 308 311 314 317 321 323 326 326 326 325 325 325 325 324 323 323 323 323 322 322 322 322 320 316
272 274 274 273 283 288 281 280 279 282 287 291 288 297 304 308 308 305 303 303 307 310 312 315 319 322 324 324 324 324 324 325 324 324 323 323 323 323 323 323 322 322 320 318
272 273 275 280 284 285 286 285 277 276 281 287 296 294 299 298 300 301 303 305 306 309 313 316 318 320 321 322 323 324 323 323 323 323 322 322 322 322 321 321 321 320 319 317
273 275 278 280 282 285 284 286 283 283 287 288 292 294 303 300 299 299 301 304 306 311 314 317 318 320 320 321 322 323 323 324 323 322 320 320 320 320 320 319 319 318 317 317
269 272 277 279 286 287 282 279 279 285 289 291 289 296 300 298 293 294 300 306 309 313 316 317 318 320 322 322 322 321 322 322 321 321 320 320 320 318 319 319 318 318 318 318
269 273 279 281 285 278 289 297 292 285 293 294 299 302 301 299 302 306 310 311 314 316 317 318 319 320 321 321 320 320 320 320 320 319 320 320 320 319 318 318 318 319 319 318
276 274 279 278 278 286 289 292 294 292 295 300 302 305 306 308 309 309 314 318 318 318 319 320 321 320 320 321 322 322 322 322 322 321 321 320 320 319 319 318 318 319 318 317
276 280 276 281 281 283 293 298 301 304 292 299 299 298 301 305 299 306 314 318 320 321 322 322 322 322 323 324 324 324 323 323 322 322 321 321 321 321 320 319 319 319 318 316
271 275 272 276 280 287 294 298 303 291 299 302 299 301 303 305 311 318 320 321 322 322 322 323 324 324 325 326 326 324 324 323 323 322 322 323 323 322 321 320 321 320 318 317
272 273 275 277 280 282 291 293 289 301 308 303 304 307 309 314 319 319 320 321 322 322 323 324 324 325 326 327 326 324 323 324 324 324 324 324 324 324 323 322 322 321 320 318
273 276 277 277 284 296 293 300 302 307 304 305 308 315 318 316 318 320 320 321 322 323 324 325 325 325 326 327 327 324 325 326 326 326 326 326 325 325 325 324 324 323 324 322
279 283 281 282 290 291 296 305 310 312 310 317 320 320 320 317 320 320 321 322 323 324 325 326 326 325 325 327 328 327 327 328 328 327 327 328 328 328 328 328 328 327 327 326
283 283 282 285 292 296 297 297 301 312 319 320 321 321 321 322 321 322 323 324 325 326 326 327 326 326 326 328 328 330 330 330 329 329 330 330 330 330 330 330 330 329 327 325
286 285 282 285 280 293 285 290 306 309 311 318 321 320 323 324 323 324 325 326 327 327 327 327 327 327 328 329 330 331 332 332 331 331 332 332 332 333 334 333 330 330 324 320